MSR1015 HEAT-OMDB

Flight info

Callsign MSR1015
Flight time N/A
Altitude 38000
Route ASPEK1A ASPEK DCT NABED V608 HGD M872 EVANO J852 WEJ J874 MUSRI L604 UMENA G663 TABTA L604 KFA J749 ROTEL N572 TORBO M677 MURUB M708 DASUT N717 UKVUP B547 SIR DCT DATOB
Aircraft A359/H-SDE2E3GHIJ3J4J5LM1ORWXY/LB1D1

Departure

Time 2026-05-07 22:07
Airport Asyut International Airport (HEAT)

Arrival

Time N/A
Airport Dubai International Airport (OMDB)
Time Latitude Longitude Altitude Speed Heading
2026-05-07 22:05 27.03798 31.02340 789 ft 0 kts 310°
2026-05-07 22:06 27.03798 31.02339 789 ft 1 kts 310°
2026-05-07 22:06 27.03849 31.02271 788 ft 43 kts 310°
2026-05-07 22:06 27.04282 31.01688 777 ft 150 kts 309°
2026-05-07 22:06 27.05076 31.00512 1049 ft 216 kts 304°
2026-05-07 22:07 27.05776 30.99007 2311 ft 221 kts 293°
2026-05-07 22:07 27.06586 30.97499 3470 ft 226 kts 309°
2026-05-07 22:07 27.07645 30.96280 4591 ft 215 kts 316°
2026-05-07 22:07 27.08780 30.95071 5080 ft 238 kts 319°
2026-05-07 22:08 27.10229 30.94067 5543 ft 253 kts 338°
2026-05-07 22:08 27.11981 30.93828 6297 ft 259 kts
2026-05-07 22:08 27.13701 30.94508 6870 ft 269 kts 28°
2026-05-07 22:08 27.15056 30.95998 7084 ft 277 kts 50°
2026-05-07 22:09 27.16068 30.97846 7113 ft 278 kts 56°
2026-05-07 22:09 27.17009 30.99727 7194 ft 276 kts 56°
2026-05-07 22:09 27.17976 31.01602 7609 ft 278 kts 55°
2026-05-07 22:09 27.18977 31.03468 8085 ft 281 kts 54°
2026-05-07 22:10 27.20004 31.05340 8547 ft 283 kts 54°
2026-05-07 22:10 27.21046 31.07222 9037 ft 285 kts 54°
2026-05-07 22:10 27.22103 31.09125 9503 ft 288 kts 54°
2026-05-07 22:10 27.23155 31.11012 9977 ft 291 kts 54°
2026-05-07 22:11 27.23789 31.12377 10274 ft 298 kts 63°
2026-05-07 22:11 27.24109 31.15568 10917 ft 324 kts 95°
2026-05-07 22:11 27.23454 31.18035 11435 ft 342 kts 108°
2026-05-07 22:11 27.22540 31.20570 11955 ft 357 kts 109°
2026-05-07 22:12 27.21611 31.23186 12555 ft 364 kts 109°
2026-05-07 22:12 27.20700 31.25853 13116 ft 369 kts 108°
2026-05-07 22:12 27.19786 31.28595 13773 ft 375 kts 108°
2026-05-07 22:12 27.18883 31.31344 14646 ft 375 kts 107°
2026-05-07 22:13 27.17982 31.34112 15393 ft 379 kts 107°
2026-05-07 22:13 27.17077 31.36904 16136 ft 383 kts 107°
2026-05-07 22:13 27.16160 31.39734 16865 ft 387 kts 107°
2026-05-07 22:13 27.15235 31.42591 17596 ft 391 kts 107°
2026-05-07 22:14 27.14365 31.45490 18313 ft 394 kts 103°
2026-05-07 22:14 27.13849 31.48510 19017 ft 395 kts 91°
2026-05-07 22:14 27.13922 31.51600 19668 ft 397 kts 78°
2026-05-07 22:14 27.14415 31.54658 20273 ft 400 kts 73°
2026-05-07 22:15 27.15085 31.57702 20920 ft 404 kts 71°
2026-05-07 22:15 27.15831 31.60749 21564 ft 408 kts 70°
2026-05-07 22:15 27.16598 31.63853 22202 ft 412 kts 70°
2026-05-07 22:15 27.17336 31.66938 22836 ft 417 kts 70°
2026-05-07 22:16 27.18073 31.70155 23489 ft 422 kts 71°
2026-05-07 22:16 27.18775 31.73338 24143 ft 426 kts 71°
2026-05-07 22:16 27.19473 31.76584 24775 ft 430 kts 71°
2026-05-07 22:16 27.20169 31.79864 25349 ft 434 kts 71°
2026-05-07 22:17 27.20870 31.83185 25944 ft 438 kts 71°
2026-05-07 22:17 27.21574 31.86522 26530 ft 442 kts 71°
2026-05-07 22:17 27.22287 31.89895 27098 ft 445 kts 71°
2026-05-07 22:17 27.23007 31.93295 27663 ft 448 kts 70°
2026-05-07 22:18 27.23486 31.95555 27999 ft 451 kts 70°
2026-05-07 22:18 27.25202 32.03650 29234 ft 458 kts 71°
2026-05-07 22:18 27.25692 32.05964 29544 ft 461 kts 71°
2026-05-07 22:19 27.26687 32.10686 30150 ft 466 kts 71°
2026-05-07 22:19 27.27181 32.13035 30453 ft 468 kts 71°
2026-05-07 22:19 27.27930 32.16608 30913 ft 471 kts 71°
2026-05-07 22:19 27.28684 32.20215 31352 ft 474 kts 71°
2026-05-07 22:20 27.29441 32.23837 31748 ft 477 kts 71°
2026-05-07 22:20 27.30032 32.27548 32052 ft 486 kts 78°
2026-05-07 22:20 27.30146 32.31324 32440 ft 492 kts 86°
2026-05-07 22:20 27.29974 32.35178 32853 ft 495 kts 88°
2026-05-07 22:21 27.29713 32.39052 33187 ft 499 kts 89°
2026-05-07 22:21 27.29403 32.42948 33481 ft 502 kts 90°
2026-05-07 22:21 27.29073 32.46876 33820 ft 504 kts 90°
2026-05-07 22:21 27.28743 32.50810 34108 ft 507 kts 90°
2026-05-07 22:22 27.28416 32.54777 34372 ft 511 kts 90°
2026-05-07 22:22 27.28096 32.58779 34592 ft 515 kts 90°
2026-05-07 22:22 27.27779 32.62798 34842 ft 517 kts 90°
2026-05-07 22:22 27.27466 32.66783 35158 ft 519 kts 90°
2026-05-07 22:23 27.27149 32.70828 35487 ft 520 kts 90°
2026-05-07 22:23 27.26833 32.74874 35792 ft 521 kts 90°
2026-05-07 22:23 27.26513 32.78944 36068 ft 523 kts 90°
2026-05-07 22:23 27.26189 32.83022 36370 ft 524 kts 90°
2026-05-07 22:24 27.25859 32.87112 36649 ft 525 kts 90°
2026-05-07 22:24 27.25528 32.91202 36930 ft 526 kts 90°
2026-05-07 22:24 27.25196 32.95295 37312 ft 524 kts 90°
2026-05-07 22:24 27.24865 32.99363 37682 ft 522 kts 91°
2026-05-07 22:25 27.24533 33.03428 37906 ft 524 kts 91°
2026-05-07 22:25 27.23864 33.11587 37967 ft 523 kts 91°
2026-05-07 22:26 27.23189 33.19727 37955 ft 524 kts 91°
2026-05-07 22:26 27.22522 33.27815 37968 ft 523 kts 91°
2026-05-07 22:27 27.21848 33.35964 37955 ft 522 kts 91°
2026-05-07 22:27 27.21166 33.44087 37957 ft 521 kts 91°
2026-05-07 22:28 27.20479 33.52202 37959 ft 521 kts 91°
2026-05-07 22:28 27.19792 33.60267 37953 ft 520 kts 91°
2026-05-07 22:29 27.19105 33.68345 37965 ft 519 kts 91°
2026-05-07 22:29 27.18389 33.76422 37952 ft 520 kts 93°
2026-05-07 22:30 27.16521 33.84314 37960 ft 526 kts 107°
2026-05-07 22:30 27.13877 33.91964 37974 ft 525 kts 109°
2026-05-07 22:31 27.11121 33.99550 37960 ft 524 kts 109°
2026-05-07 22:31 27.08382 34.07139 37961 ft 522 kts 110°
2026-05-07 22:32 27.05702 34.14623 37959 ft 519 kts 110°
2026-05-07 22:32 27.03004 34.22156 37958 ft 519 kts 110°
2026-05-07 22:33 27.00306 34.29664 37953 ft 520 kts 110°
2026-05-07 22:33 26.97604 34.37186 37952 ft 519 kts 110°
2026-05-07 22:34 26.94898 34.44699 37955 ft 520 kts 110°
2026-05-07 22:34 26.92186 34.52213 37961 ft 519 kts 110°
2026-05-07 22:35 26.89494 34.59650 37962 ft 519 kts 111°
2026-05-07 22:35 26.86777 34.67153 37950 ft 519 kts 111°
2026-05-07 22:36 26.84058 34.74640 37959 ft 518 kts 111°
2026-05-07 22:36 26.81339 34.82120 37944 ft 518 kts 111°
2026-05-07 22:37 26.78618 34.89588 37943 ft 517 kts 111°
2026-05-07 22:37 26.75895 34.97047 37940 ft 517 kts 112°
2026-05-07 22:38 26.73174 35.04491 37945 ft 517 kts 112°
2026-05-07 22:38 26.70464 35.11895 37934 ft 516 kts 112°
2026-05-07 22:39 26.67742 35.19323 37925 ft 516 kts 112°
2026-05-07 22:39 26.65011 35.26744 37924 ft 515 kts 113°
2026-05-07 22:40 26.62289 35.34137 37923 ft 514 kts 113°
2026-05-07 22:40 26.59560 35.41539 37927 ft 514 kts 114°
2026-05-07 22:41 26.56836 35.48909 37917 ft 513 kts 114°
2026-05-07 22:41 26.54071 35.56257 37916 ft 512 kts 115°
2026-05-07 22:42 26.51284 35.63509 37915 ft 511 kts 115°
2026-05-07 22:42 26.48477 35.70806 37908 ft 511 kts 115°
2026-05-07 22:43 26.45677 35.78099 37906 ft 510 kts 116°
2026-05-07 22:43 26.42880 35.85383 37907 ft 510 kts 116°
2026-05-07 22:44 26.40079 35.92665 37896 ft 510 kts 116°
2026-05-07 22:44 26.37290 35.99903 37895 ft 509 kts 116°
2026-05-07 22:45 26.34497 36.07159 37897 ft 509 kts 117°
2026-05-07 22:45 26.31698 36.14399 37886 ft 508 kts 117°
2026-05-07 22:46 26.28892 36.21620 37889 ft 508 kts 117°
2026-05-07 22:46 26.26087 36.28853 37889 ft 508 kts 117°
2026-05-07 22:47 26.23275 36.36086 37890 ft 508 kts 117°
2026-05-07 22:47 26.20491 36.43289 37892 ft 510 kts 116°
2026-05-07 22:48 26.18808 36.51004 37891 ft 521 kts 97°
2026-05-07 22:48 26.19151 36.59123 37887 ft 529 kts 86°
2026-05-07 22:49 26.20035 36.67290 37891 ft 532 kts 85°
2026-05-07 22:49 26.20938 36.75378 37890 ft 533 kts 85°
2026-05-07 22:50 26.21386 36.80186 37893 ft 532 kts 89°
2026-05-07 22:51 26.22010 36.88408 37886 ft 532 kts 90°
2026-05-07 22:51 26.22705 36.96589 37885 ft 534 kts 89°
2026-05-07 22:52 26.23493 37.04835 37896 ft 536 kts 89°
2026-05-07 22:52 26.24306 37.13112 37896 ft 537 kts 89°
2026-05-07 22:53 26.25113 37.21380 37905 ft 538 kts 89°
2026-05-07 22:53 26.25915 37.29705 37907 ft 539 kts 89°
2026-05-07 22:54 26.26705 37.38018 37915 ft 541 kts 90°
2026-05-07 22:54 26.27492 37.46322 37917 ft 542 kts 90°
2026-05-07 22:55 26.28279 37.54674 37923 ft 542 kts 90°
2026-05-07 22:55 26.29059 37.63052 37926 ft 543 kts 90°
2026-05-07 22:56 26.29840 37.71428 37923 ft 544 kts 90°
2026-05-07 22:56 26.30614 37.79777 37935 ft 545 kts 90°
2026-05-07 22:57 26.31392 37.88168 37931 ft 545 kts 91°
2026-05-07 22:57 26.32161 37.96603 37934 ft 546 kts 91°
2026-05-07 22:58 26.32922 38.05014 37938 ft 546 kts 91°
2026-05-07 22:58 26.33687 38.13443 37935 ft 547 kts 91°
2026-05-07 22:59 26.34443 38.21873 37934 ft 546 kts 91°
2026-05-07 22:59 26.35193 38.30298 37935 ft 546 kts 91°
2026-05-07 23:00 26.35936 38.38723 37934 ft 546 kts 91°
2026-05-07 23:00 26.36675 38.47160 37935 ft 546 kts 91°
2026-05-07 23:01 26.37409 38.55601 37933 ft 546 kts 91°
2026-05-07 23:01 26.38134 38.63978 37934 ft 547 kts 91°
2026-05-07 23:02 26.38859 38.72408 37944 ft 547 kts 91°
2026-05-07 23:02 26.39581 38.80876 37938 ft 547 kts 92°
2026-05-07 23:03 26.40299 38.89329 37943 ft 547 kts 92°
2026-05-07 23:03 26.40892 38.96357 37935 ft 547 kts 92°
2026-05-07 23:04 26.41710 39.06181 37935 ft 548 kts 92°
2026-05-07 23:04 26.42414 39.14649 37934 ft 548 kts 92°
2026-05-07 23:05 26.42994 39.21699 37935 ft 549 kts 92°
2026-05-07 23:05 26.43674 39.30193 37943 ft 549 kts 94°
2026-05-07 23:06 26.44121 39.38669 37945 ft 547 kts 95°
2026-05-07 23:06 26.44480 39.47157 37946 ft 548 kts 96°
2026-05-07 23:07 26.44931 39.57060 37945 ft 549 kts 95°
2026-05-07 23:07 26.45277 39.64146 37939 ft 549 kts 95°
2026-05-07 23:08 26.45692 39.72634 37942 ft 548 kts 95°
2026-05-07 23:08 26.46102 39.81155 37977 ft 549 kts 96°
2026-05-07 23:09 26.46503 39.89661 37978 ft 549 kts 96°
2026-05-07 23:09 26.46896 39.98121 37961 ft 549 kts 96°
2026-05-07 23:10 26.47287 40.06628 37975 ft 549 kts 96°
2026-05-07 23:10 26.47676 40.15172 37951 ft 550 kts 96°
2026-05-07 23:11 26.48059 40.23683 37964 ft 550 kts 96°
2026-05-07 23:11 26.48435 40.32208 37961 ft 550 kts 96°
2026-05-07 23:12 26.48805 40.40749 37965 ft 550 kts 96°
2026-05-07 23:12 26.49173 40.49285 37951 ft 550 kts 96°
2026-05-07 23:13 26.49535 40.57767 37957 ft 550 kts 96°
2026-05-07 23:13 26.49900 40.66297 37968 ft 550 kts 96°
2026-05-07 23:14 26.50247 40.74827 37963 ft 549 kts 96°
2026-05-07 23:14 26.50588 40.83346 37978 ft 550 kts 96°
2026-05-07 23:15 26.50926 40.91866 37965 ft 550 kts 96°
2026-05-07 23:15 26.51262 41.00420 37977 ft 550 kts 96°
2026-05-07 23:16 26.51131 41.08816 37990 ft 542 kts 103°
2026-05-07 23:16 26.50578 41.17197 37979 ft 541 kts 104°
2026-05-07 23:17 26.49961 41.25566 37980 ft 541 kts 104°
2026-05-07 23:17 26.49347 41.33930 37980 ft 541 kts 104°
2026-05-07 23:18 26.48742 41.42304 37981 ft 542 kts 104°
2026-05-07 23:18 26.48135 41.50700 37980 ft 542 kts 104°
2026-05-07 23:19 26.47526 41.59086 37980 ft 542 kts 104°
2026-05-07 23:19 26.46910 41.67473 37981 ft 542 kts 104°
2026-05-07 23:20 26.46292 41.75810 37981 ft 542 kts 104°
2026-05-07 23:20 26.45666 41.84205 37981 ft 542 kts 104°
2026-05-07 23:21 26.45033 41.92592 37981 ft 543 kts 104°
2026-05-07 23:21 26.44394 42.01002 37979 ft 543 kts 104°
2026-05-07 23:22 26.43756 42.09360 37981 ft 543 kts 104°
2026-05-07 23:22 26.43112 42.17762 37981 ft 543 kts 104°
2026-05-07 23:23 26.42459 42.26146 37975 ft 543 kts 104°
2026-05-07 23:23 26.41799 42.34548 37976 ft 543 kts 104°
2026-05-07 23:24 26.41137 42.42948 37975 ft 543 kts 104°
2026-05-07 23:24 26.40468 42.51350 37975 ft 543 kts 104°
2026-05-07 23:25 26.39801 42.59705 37958 ft 544 kts 104°
2026-05-07 23:25 26.39125 42.68106 37963 ft 543 kts 104°
2026-05-07 23:26 26.38446 42.76494 37960 ft 543 kts 104°
2026-05-07 23:26 26.37757 42.84884 37956 ft 542 kts 104°
2026-05-07 23:27 26.36719 42.97446 37949 ft 543 kts 104°
2026-05-07 23:27 26.36026 43.05842 37957 ft 543 kts 103°
2026-05-07 23:28 26.35329 43.14210 37948 ft 542 kts 104°
2026-05-07 23:28 26.34614 43.22591 37945 ft 543 kts 103°
2026-05-07 23:29 26.33899 43.30959 37946 ft 543 kts 103°
2026-05-07 23:29 26.33181 43.39357 37943 ft 543 kts 103°
2026-05-07 23:30 26.32459 43.47724 37941 ft 543 kts 103°
2026-05-07 23:30 26.31732 43.56113 37945 ft 544 kts 103°
2026-05-07 23:31 26.31003 43.64446 37948 ft 544 kts 103°
2026-05-07 23:31 26.30264 43.72838 37939 ft 544 kts 103°
2026-05-07 23:32 26.29849 43.81275 37936 ft 550 kts 97°
2026-05-07 23:32 26.29879 43.89827 37936 ft 552 kts 96°
2026-05-07 23:33 26.29966 43.98387 37946 ft 552 kts 96°
2026-05-07 23:33 26.30047 44.06903 37946 ft 552 kts 96°
2026-05-07 23:34 26.30114 44.15452 37945 ft 551 kts 96°
2026-05-07 23:34 26.30168 44.23987 37939 ft 551 kts 96°
2026-05-07 23:35 26.30216 44.32537 37938 ft 551 kts 96°
2026-05-07 23:35 26.30259 44.41094 37943 ft 552 kts 96°
2026-05-07 23:36 26.30298 44.49679 37949 ft 552 kts 96°
2026-05-07 23:36 26.30336 44.58221 37950 ft 551 kts 96°
2026-05-07 23:37 26.30367 44.66718 37956 ft 551 kts 96°
2026-05-07 23:37 26.30391 44.75266 37953 ft 550 kts 97°
2026-05-07 23:38 26.30409 44.83787 37955 ft 551 kts 96°
2026-05-07 23:38 26.30425 44.92310 37970 ft 551 kts 96°
2026-05-07 23:39 26.30436 45.00841 37966 ft 551 kts 97°
2026-05-07 23:39 26.30438 45.09392 37963 ft 550 kts 97°
2026-05-07 23:40 26.30434 45.17892 37979 ft 550 kts 97°
2026-05-07 23:40 26.30424 45.26412 37981 ft 550 kts 97°
2026-05-07 23:41 26.30414 45.34914 37980 ft 549 kts 97°
2026-05-07 23:41 26.30396 45.43438 37982 ft 550 kts 97°
2026-05-07 23:42 26.30372 45.51934 37987 ft 549 kts 97°
2026-05-07 23:42 26.30345 45.60446 37990 ft 548 kts 97°
2026-05-07 23:43 26.30313 45.68930 37989 ft 548 kts 97°
2026-05-07 23:43 26.30276 45.77424 37990 ft 548 kts 97°
2026-05-07 23:44 26.30237 45.85884 37990 ft 548 kts 97°
2026-05-07 23:44 26.30188 45.94388 37990 ft 548 kts 97°
2026-05-07 23:45 26.30135 46.02886 37999 ft 547 kts 97°
2026-05-07 23:45 26.30087 46.09983 38000 ft 547 kts 97°
2026-05-07 23:46 26.30017 46.19849 38007 ft 547 kts 97°
2026-05-07 23:46 26.29949 46.28323 38008 ft 547 kts 97°
2026-05-07 23:47 26.29879 46.36771 38008 ft 547 kts 97°
2026-05-07 23:47 26.29802 46.45247 38008 ft 547 kts 97°
2026-05-07 23:48 26.29722 46.53718 38009 ft 548 kts 97°
2026-05-07 23:48 26.29635 46.62223 38008 ft 547 kts 97°
2026-05-07 23:49 26.29542 46.70672 37989 ft 547 kts 97°
2026-05-07 23:49 26.29446 46.79174 37990 ft 547 kts 97°
2026-05-07 23:50 26.29342 46.87641 37990 ft 547 kts 97°
2026-05-07 23:50 26.29232 46.96087 37990 ft 546 kts 97°
2026-05-07 23:51 26.29119 47.04510 37982 ft 546 kts 97°
2026-05-07 23:51 26.29003 47.12970 37981 ft 546 kts 97°
2026-05-07 23:52 26.28880 47.21406 37981 ft 544 kts 97°
2026-05-07 23:52 26.28772 47.28442 37980 ft 543 kts 97°
2026-05-07 23:53 26.28617 47.36839 37981 ft 543 kts 97°
2026-05-07 23:53 26.28453 47.45263 37967 ft 542 kts 97°
2026-05-07 23:54 26.28290 47.53647 37966 ft 541 kts 97°
2026-05-07 23:54 26.28124 47.61990 37939 ft 540 kts 97°
2026-05-07 23:55 26.28320 47.70384 37934 ft 549 kts 87°
2026-05-07 23:55 26.29797 47.78745 37934 ft 551 kts 82°
2026-05-07 23:56 26.31533 47.87063 37926 ft 551 kts 81°
2026-05-07 23:56 26.33282 47.95398 37922 ft 551 kts 81°
2026-05-07 23:57 26.34985 48.03697 37917 ft 551 kts 82°
2026-05-07 23:57 26.36672 48.12007 37909 ft 550 kts 82°
2026-05-07 23:58 26.38356 48.20358 37906 ft 550 kts 82°
2026-05-07 23:58 26.40031 48.28697 37895 ft 550 kts 82°
2026-05-07 23:59 26.41694 48.36994 37884 ft 550 kts 82°
2026-05-07 23:59 26.43362 48.45333 37881 ft 550 kts 82°
2026-05-08 00:00 26.45030 48.53696 37880 ft 551 kts 82°
2026-05-08 00:00 26.46673 48.61978 37869 ft 551 kts 82°
2026-05-08 00:01 26.47652 48.70392 37866 ft 543 kts 92°
2026-05-08 00:01 26.47912 48.78822 37869 ft 542 kts 94°
2026-05-08 00:02 26.48066 48.87204 37863 ft 542 kts 94°
2026-05-08 00:02 26.48223 48.95621 37855 ft 542 kts 94°
2026-05-08 00:03 26.48394 49.03985 37852 ft 541 kts 94°
2026-05-08 00:03 26.48568 49.12403 37844 ft 541 kts 94°
2026-05-08 00:04 26.48741 49.20814 37841 ft 541 kts 94°
2026-05-08 00:04 26.48906 49.29195 37842 ft 541 kts 94°
2026-05-08 00:05 26.49062 49.37562 37837 ft 541 kts 94°
2026-05-08 00:05 26.49213 49.45946 37832 ft 540 kts 94°
2026-05-08 00:06 26.49362 49.54339 37833 ft 540 kts 94°
2026-05-08 00:06 26.49505 49.62727 37833 ft 539 kts 94°
2026-05-08 00:07 26.49646 49.71045 37831 ft 539 kts 94°
2026-05-08 00:07 26.50346 49.79396 37832 ft 548 kts 80°
2026-05-08 00:08 26.52531 49.87580 37832 ft 550 kts 75°
2026-05-08 00:08 26.54986 49.95685 37823 ft 550 kts 74°
2026-05-08 00:09 26.57447 50.03776 37822 ft 550 kts 74°
2026-05-08 00:09 26.59873 50.11876 37824 ft 549 kts 74°
2026-05-08 00:10 26.62254 50.19922 37816 ft 548 kts 75°
2026-05-08 00:10 26.64646 50.28034 37813 ft 549 kts 74°
2026-05-08 00:11 26.67017 50.36101 37815 ft 548 kts 74°
2026-05-08 00:11 26.69281 50.44244 37823 ft 546 kts 76°
2026-05-08 00:12 26.71387 50.52407 37822 ft 547 kts 77°
2026-05-08 00:12 26.73486 50.60570 37822 ft 547 kts 76°
2026-05-08 00:13 26.75610 50.68742 37829 ft 547 kts 76°
2026-05-08 00:13 26.77751 50.76937 37841 ft 547 kts 76°
2026-05-08 00:14 26.79865 50.85057 37841 ft 547 kts 76°
2026-05-08 00:14 26.81993 50.93252 37841 ft 547 kts 76°
2026-05-08 00:15 26.84032 51.01460 37847 ft 546 kts 79°
2026-05-08 00:15 26.85764 51.09706 37850 ft 545 kts 80°
2026-05-08 00:16 26.86377 51.18113 37858 ft 535 kts 99°
2026-05-08 00:16 26.84806 51.26109 37863 ft 523 kts 113°
2026-05-08 00:17 26.82508 51.33787 37859 ft 521 kts 115°
2026-05-08 00:17 26.80117 51.41454 37860 ft 521 kts 115°
2026-05-08 00:18 26.77767 51.49128 37870 ft 521 kts 114°
2026-05-08 00:18 26.75449 51.56805 37872 ft 520 kts 114°
2026-05-08 00:19 26.73144 51.64449 37878 ft 519 kts 114°
2026-05-08 00:19 26.70855 51.72076 37890 ft 519 kts 114°